[[{"header":{"parameterUnit":"m.s-1","parameterCategory":1,"la1":30.2991,"la2":30.254,"lo1":-89.0895,"lo2":-89.0444,"dy":0.0017,"dx":0.0017,"nx":28,"ny":28,"refTime":"2024-06-25T21:00:00:Z","depth":0,"parameterNumber":2,"parameterNumberName":"U-component_of_WINDS"},"data":[0,0,0,0,0,0,0,0,0,0,0,0,0,0,0,0,0,0,0,0,0,0,0,0,0,0,0,0,0,0,0,0,0,0,0,0,0,0,0,0,0,0,0,0,0,0,0,0,0,0,0,0,0,0,0,0,0,0,2.2964,2.2964,0,2.3037,2.3038,2.3039,2.3045,2.3044,2.3043,2.3042,2.3123,2.3125,2.3128,0,0,0,0,0,0,0,0,0,0,0,0,0,2.2836,2.2838,2.2963,2.2964,2.2965,2.3037,2.3038,2.3039,2.3045,2.3044,2.3043,2.3042,2.3122,2.3125,2.3129,0,0,0,0,0,0,0,0,0,0,0,0,0,2.2898,2.2839,2.2963,2.2977,2.2979,2.3037,2.3038,2.3039,2.3045,2.3044,2.3042,2.3041,2.3121,2.3125,2.3129,2.3181,0,0,2.3142,2.3144,0,0,0,0,0,0,0,0,2.2895,2.2903,2.2974,2.2976,2.2978,2.303,2.3023,2.3087,2.3045,2.302,2.3042,2.3041,2.3093,2.31,2.3116,2.3185,2.3188,2.3143,2.3146,2.3147,2.3149,0,0,0,0,0,0,0,2.289,2.29,2.2993,2.2975,2.2977,2.2982,2.2989,2.3035,2.3063,2.3022,2.3022,2.3031,2.3094,2.3112,2.3118,2.3189,2.3143,2.3147,2.3149,2.3151,2.3309,2.331,0,0,0,0,0,0,2.2883,2.2896,2.299,2.2995,2.2932,2.2985,2.2993,2.3015,2.3062,2.3068,2.3032,2.3031,2.3105,2.3113,2.3121,2.3187,2.3147,2.3151,2.3154,2.3307,2.3309,2.3311,0,0,0,0,0,0,2.288,2.2891,2.2987,2.2946,2.2958,2.2988,2.3013,2.3017,2.3035,2.307,2.3075,2.3044,2.3105,2.3115,2.3167,2.319,2.3153,2.3157,2.3305,2.3308,2.331,2.3317,0,0,0,0,0,0,2.2876,2.289,2.2907,2.2946,2.2961,2.3029,2.3014,2.3019,2.3042,2.3041,2.3083,2.3089,2.3105,2.316,2.3171,2.3195,2.3161,2.3303,2.3306,2.3309,2.3315,2.332,2.3324,0,0,0,0,0,2.2872,2.2907,2.2908,2.292,2.2983,2.303,2.3039,2.3054,2.3043,2.3063,2.3086,2.3088,2.3186,2.3165,2.3178,2.3203,2.3302,2.3305,2.3309,2.3313,2.3319,2.3324,0,0,0,0,0,0,2.287,2.2912,2.2914,2.2962,2.2993,2.3031,2.3055,2.3059,2.3094,2.3092,2.3113,2.3122,2.3174,2.3194,2.317,2.3259,2.3243,2.3249,2.3242,2.3248,2.3252,2.3246,2.3164,0,0,0,0,0,2.2876,2.2908,2.2944,2.2983,2.2999,2.3025,2.3046,2.3056,2.3088,2.3102,2.3128,2.3162,2.3201,2.3226,2.3263,2.3319,2.333,2.3344,2.3348,2.3351,2.3356,2.3391,2.3398,2.3322,2.3322,2.3322,0,0,2.2887,2.2914,2.2933,2.2984,2.3008,2.3045,2.3035,2.3073,2.3101,2.3108,2.3158,2.318,2.3219,2.3274,2.3299,2.3292,2.338,2.3356,2.3358,2.3361,2.3395,2.3402,2.3409,2.3325,2.3324,2.3324,0,0,2.2926,2.2948,2.2985,2.3011,2.3048,2.3066,2.3075,2.3114,2.3128,2.3179,2.3186,2.3222,2.3287,2.3316,2.3339,2.3395,2.3399,2.3407,2.3428,2.3462,2.3468,2.3473,2.3495,2.3502,2.3412,2.3412,2.3412,0,2.2935,2.2987,2.3004,2.3042,2.3066,2.3074,2.3114,2.3138,2.3187,2.3204,2.3196,2.3282,2.3309,2.3372,2.3386,2.3404,2.3417,2.3401,2.3465,2.3471,2.3477,2.3497,2.3505,2.3413,2.3413,2.3413,2.3413,0,2.2998,2.3035,2.306,2.3106,2.3134,2.3172,2.3198,2.3224,2.3233,2.3253,2.3308,2.3341,2.3387,2.3403,2.3413,2.3469,2.3464,2.3461,2.3445,2.3484,2.3504,2.3512,2.3414,2.3414,2.3414,2.3413,0,0,2.3033,2.3092,2.3101,2.3123,2.3168,2.3198,2.324,2.3284,2.3307,2.3342,2.3379,2.3437,2.3435,2.3462,2.3476,2.3505,2.355,2.3499,2.35,2.3508,2.3618,2.362,2.3629,2.3554,2.3556,2.3557,2.3615,0,2.3077,2.3148,2.3167,2.3228,2.3265,2.3277,2.3313,2.3347,2.3368,2.3405,2.3429,2.347,2.3464,2.3481,2.3511,2.3538,2.3573,2.3535,2.3591,2.3593,2.3579,2.3639,2.364,2.3693,2.3623,2.3624,2.3625,0,2.3136,2.3172,2.3237,2.3281,2.3297,2.3329,2.3374,2.3407,2.3448,2.3462,2.3494,2.3506,2.3553,2.3538,2.3605,2.3579,2.3604,2.3622,2.3625,2.363,2.361,2.3646,2.371,2.3718,2.3638,2.3637,2.3636,0,2.3157,2.3222,2.327,2.3289,2.3341,2.3364,2.3387,2.3426,2.3453,2.3494,2.3512,2.3558,2.3583,2.362,2.3646,2.3631,2.3713,2.3698,2.3728,2.3727,2.3742,2.3741,2.3811,2.3759,2.3759,2.3759,2.3759,0,2.3203,2.3243,2.328,2.331,2.3356,2.338,2.3426,2.345,2.3486,2.3523,2.3538,2.3573,2.3605,2.3645,2.3667,2.3721,2.3733,2.3747,2.3752,2.3745,2.3744,2.3761,2.3758,2.3761,2.3761,2.376,2.376,0,2.3232,2.3259,2.3312,2.3358,2.3371,2.3403,2.3444,2.3476,2.3499,2.3546,2.3559,2.3597,2.3646,2.3676,2.3739,2.3754,2.3814,2.3818,2.3799,2.3802,2.383,2.3827,2.3914,2.3927,2.3866,2.3867,2.3867,0,2.3259,2.329,2.334,2.3365,2.3389,2.3429,2.3457,2.3484,2.3513,2.3564,2.359,2.364,2.3681,2.376,2.3795,2.3844,2.385,2.3877,2.3857,2.385,2.3851,2.3849,2.3853,2.388,2.388,2.388,2.3881,0,2.3305,2.3318,2.3356,2.3401,2.3434,2.3471,2.3508,2.3529,2.3563,2.3596,2.3646,2.3678,2.3743,2.3793,2.3846,2.3874,2.3884,2.3888,2.3897,2.389,2.3878,2.3886,2.3808,2.3885,2.3884,2.3884,2.3884,2.3884,2.3334,2.3363,2.3404,2.3448,2.3479,2.3515,2.3547,2.3576,2.3617,2.3671,2.3686,2.3739,2.3784,2.3856,2.3886,2.393,2.3926,2.394,2.3943,2.3946,2.3947,2.3872,2.394,2.394,2.394,2.394,2.394,0,2.3381,2.3409,2.3449,2.3501,2.3537,2.3543,2.3586,2.3617,2.3662,2.3703,2.3744,2.3804,2.3854,2.3895,2.3948,2.3976,2.3983,2.3989,2.3987,2.3994,2.3947,2.3933,2.3984,2.3984,2.3984,2.3983,2.3983,2.3983,2.3409,2.346,2.3479,2.3547,2.3575,2.3626,2.3651,2.3685,2.3718,2.3783,2.3825,2.3851,2.3893,2.395,2.3999,2.401,2.4029,2.4035,2.4047,2.4002,2.3997,2.3992,2.398,2.4039,2.4039,2.4091,2.4091,2.4092]},{"header":{"parameterUnit":"m.s-1","parameterCategory":1,"la1":30.2991,"la2":30.254,"lo1":-89.0895,"lo2":-89.0444,"dy":0.0017,"dx":0.0017,"nx":28,"ny":28,"refTime":"2024-06-25T21:00:00:Z","depth":0,"parameterNumber":3,"parameterNumberName":"V-component_of_WINDS"},"data":[0,0,0,0,0,0,0,0,0,0,0,0,0,0,0,0,0,0,0,0,0,0,0,0,0,0,0,0,0,0,0,0,0,0,0,0,0,0,0,0,0,0,0,0,0,0,0,0,0,0,0,0,0,0,0,0,0,0,4.5675,4.5676,0,4.5822,4.5823,4.5825,4.5805,4.5803,4.58,4.5798,4.5938,4.5944,4.595,0,0,0,0,0,0,0,0,0,0,0,0,0,4.5367,4.5372,4.5675,4.5676,4.5678,4.5821,4.5823,4.5825,4.5805,4.5802,4.58,4.5797,4.5936,4.5943,4.595,0,0,0,0,0,0,0,0,0,0,0,0,0,4.5505,4.5374,4.5674,4.5686,4.5688,4.5821,4.5823,4.5826,4.5806,4.5802,4.5799,4.5795,4.5934,4.5942,4.5951,4.6078,0,0,4.5978,4.5982,0,0,0,0,0,0,0,0,4.5497,4.5517,4.5682,4.5685,4.5688,4.5792,4.5766,4.591,4.5807,4.5761,4.5798,4.5794,4.5891,4.5904,4.5939,4.6085,4.6091,4.5979,4.5985,4.5988,4.5991,0,0,0,0,0,0,0,4.5488,4.551,4.5732,4.5685,4.5688,4.568,4.5696,4.5793,4.5844,4.5765,4.5764,4.5782,4.5892,4.593,4.5942,4.6093,4.5979,4.5987,4.5992,4.5996,4.635,4.6354,0,0,0,0,0,0,4.5477,4.5502,4.5728,4.5737,4.5583,4.5689,4.5706,4.5762,4.5843,4.5852,4.5785,4.578,4.5917,4.5931,4.5947,4.6102,4.5988,4.5997,4.6002,4.6346,4.6351,4.6355,0,0,0,0,0,0,4.547,4.5497,4.5722,4.562,4.5648,4.5698,4.576,4.5767,4.5805,4.5859,4.5866,4.5815,4.5914,4.5934,4.6046,4.6106,4.6001,4.6009,4.6341,4.6347,4.6353,4.6412,0,0,0,0,0,0,4.5462,4.5495,4.5546,4.5621,4.5653,4.5823,4.5764,4.5772,4.5821,4.5817,4.5889,4.5897,4.5913,4.6033,4.6055,4.6116,4.6016,4.6336,4.6344,4.6351,4.6405,4.6419,4.6432,0,0,0,0,0,4.5451,4.5555,4.5549,4.5576,4.5719,4.5826,4.5844,4.5863,4.5826,4.5877,4.5911,4.5895,4.6096,4.6045,4.6069,4.6134,4.6332,4.6342,4.635,4.6399,4.6417,4.6431,0,0,0,0,0,0,4.5482,4.5565,4.5559,4.5691,4.5752,4.5823,4.5887,4.5881,4.5951,4.5944,4.5961,4.5977,4.6091,4.6123,4.6065,4.6261,4.6208,4.6223,4.6237,4.6254,4.6267,4.6257,4.6023,0,0,0,0,0,4.5505,4.5588,4.5654,4.5764,4.5795,4.5836,4.5883,4.5893,4.5955,4.598,4.6023,4.6081,4.6157,4.6207,4.628,4.6409,4.6424,4.6465,4.6479,4.6489,4.6502,4.6572,4.6592,4.6385,4.6385,4.6385,0,0,4.5551,4.5607,4.5658,4.5772,4.582,4.5904,4.5858,4.5947,4.6009,4.5992,4.6103,4.6136,4.6201,4.6323,4.6379,4.6353,4.6562,4.6501,4.6509,4.6516,4.6584,4.6603,4.6621,4.6391,4.639,4.6389,0,0,4.568,4.5731,4.5829,4.5879,4.5954,4.5981,4.6004,4.6076,4.6098,4.621,4.62,4.627,4.6401,4.6449,4.649,4.6637,4.6625,4.666,4.673,4.6799,4.6815,4.6829,4.6882,4.6901,4.6672,4.6672,4.6672,0,4.5728,4.5857,4.5878,4.5971,4.6021,4.6013,4.6111,4.6157,4.625,4.6284,4.6255,4.642,4.6463,4.6596,4.6633,4.6666,4.6691,4.6653,4.6811,4.6826,4.684,4.6891,4.691,4.6676,4.6675,4.6675,4.6675,0,4.5912,4.6001,4.607,4.6166,4.6223,4.6317,4.635,4.6405,4.6409,4.6438,4.655,4.6602,4.6686,4.6718,4.6721,4.6851,4.6834,4.6808,4.6755,4.6863,4.6911,4.6931,4.6682,4.668,4.6679,4.6678,0,0,4.6065,4.6173,4.6198,4.6241,4.6324,4.6391,4.6484,4.657,4.6616,4.668,4.6757,4.6869,4.6846,4.6893,4.6901,4.6961,4.7075,4.6928,4.693,4.6954,4.7221,4.7241,4.7263,4.7066,4.707,4.7073,4.7216,0,4.6202,4.6372,4.6394,4.6542,4.6624,4.6618,4.6698,4.6756,4.6785,4.6856,4.6885,4.6965,4.6928,4.6956,4.7016,4.7049,4.7129,4.7038,4.7136,4.714,4.7122,4.7288,4.731,4.7442,4.7235,4.7238,4.724,0,4.6386,4.646,4.6618,4.6691,4.6726,4.6799,4.6879,4.6948,4.7012,4.7028,4.7081,4.7082,4.7174,4.7117,4.7244,4.7182,4.7223,4.7245,4.7251,4.7261,4.7198,4.7304,4.7485,4.7505,4.7269,4.7267,4.7265,0,4.6483,4.6622,4.6735,4.6772,4.6859,4.691,4.6947,4.7008,4.7059,4.7127,4.716,4.7236,4.7279,4.7337,4.7357,4.7314,4.7483,4.7427,4.7498,4.7497,4.7535,4.7533,4.7726,4.7559,4.7559,4.7558,4.7558,0,4.6635,4.6732,4.678,4.685,4.6957,4.698,4.7085,4.7119,4.7174,4.7247,4.7244,4.7312,4.7335,4.7406,4.7422,4.7525,4.7543,4.7557,4.7561,4.7559,4.7557,4.7587,4.7579,4.7564,4.7562,4.7561,4.756,0,4.6763,4.6799,4.6922,4.6995,4.7015,4.7092,4.7152,4.7218,4.7246,4.7339,4.7362,4.7404,4.7488,4.7514,4.7613,4.7624,4.7745,4.7739,4.7725,4.7726,4.7795,4.7789,4.8015,4.8046,4.7858,4.7859,4.7861,0,4.6858,4.6934,4.7016,4.7068,4.7109,4.7191,4.7243,4.7267,4.7321,4.74,4.7456,4.754,4.7608,4.7742,4.7779,4.7855,4.7852,4.7926,4.7863,4.7859,4.7854,4.785,4.7858,4.7938,4.794,4.7941,4.7942,0,4.7025,4.7039,4.7117,4.7202,4.7266,4.7333,4.7396,4.7437,4.747,4.753,4.7618,4.7672,4.7775,4.7858,4.7936,4.797,4.7962,4.7962,4.7982,4.7982,4.7972,4.7979,4.7759,4.7957,4.7955,4.7954,4.7954,4.7953,4.714,4.7207,4.7277,4.7364,4.7415,4.7475,4.7541,4.7579,4.7654,4.7743,4.7751,4.7846,4.7906,4.801,4.8049,4.8121,4.8099,4.8129,4.8136,4.8144,4.815,4.7959,4.8135,4.8134,4.8134,4.8133,4.8133,0,4.7307,4.7352,4.7432,4.7524,4.7592,4.7581,4.7651,4.7708,4.7793,4.7852,4.7921,4.8021,4.8102,4.8146,4.8225,4.8274,4.8272,4.8294,4.8292,4.83,4.8164,4.8139,4.8295,4.8295,4.8295,4.8295,4.8295,4.8295,4.7402,4.7516,4.7539,4.7677,4.7719,4.7816,4.7857,4.7912,4.796,4.8074,4.8142,4.8172,4.8224,4.8307,4.838,4.839,4.842,4.8445,4.8453,4.8326,4.8309,4.8293,4.827,4.8451,4.8451,4.8582,4.8584,4.8584]}]]